Regional Weather Roundup
Issued by NWS

Current Version | Previous Version | Text Only | Print | Product List | Glossary On
Versions: 1 2 3 4 5 6 7 8 9 10 11 12 13 14 15 16 17 18 19 20 21 22 23 24 25 26 27 28 29 30 31 32 33 34 35 36 37 38 39 40 41 42 43 44 45 46 47 48 49 50
000
ASUS44 KFWD 040715
RWRTX
NORTH TEXAS HOURLY WEATHER ROUNDUP
NATIONAL WEATHER SERVICE FORT WORTH TX
200 AM CDT TUE OCT 04 2022

NOTE: "FAIR" INDICATES FEW OR NO CLOUDS BELOW 12,000 FEET WITH NO
SIGNIFICANT WEATHER AND/OR OBSTRUCTIONS TO VISIBILITY.

TXZ118-119-040800-
DALLAS/FORT WORTH METROPLEX

CITY           SKY/WX    TMP DP  RH WIND       PRES   REMARKS
DFW AIRPORT    FAIR      66  48  52 CALM      30.09F
DALLAS LOVE    FAIR      67  49  52 SE5       30.10F
FTW MEACHAM    FAIR      63  52  67 CALM      30.10F
DAL-EXECUTIVE  FAIR      66  48  52 S3        30.10F
FTW-ALLIANCE   FAIR      65  47  52 CALM      30.10F
FTW-SPINKS     FAIR      55  49  80 CALM      30.12F
ARLINGTON      FAIR      56  51  84 CALM      30.11S
GRAND PRAIRIE  FAIR      69  46  43 CALM      30.12F
ADDISON        FAIR      70  47  43 E7        30.12F
MESQUITE       FAIR      63  48  58 CALM      30.11S
LANCASTER      FAIR      57  50  76 CALM      30.11F
$$

TXZ091>094-102>105-117-120-121-131>134-040800-
NORTH CENTRAL TEXAS

CITY           SKY/WX    TMP DP  RH WIND       PRES   REMARKS
SHRMAN/DENISON FAIR      62  44  51 CALM      30.13F
GAINESVILLE    FAIR      55  44  64 CALM      30.13F
BOWIE          FAIR      55  44  67 CALM      30.12F
BRIDGEPORT     FAIR      50  44  80 CALM      30.13F
DENTON         FAIR      54  46  74 CALM      30.11F
MCKINNEY       FAIR      55  49  80 CALM      30.11F
BONHAM         FAIR      54  49  82 CALM      30.12F
GREENVILLE     FAIR      55  49  80 N3        30.12S
ROCKWALL       FAIR      65  48  52 SE3       30.11F
TERRELL        FAIR      56  50  80 N3        30.11F
WAXAHACHIE     FAIR      59  49  69 CALM      30.13S
CLEBURNE       CLEAR     64  46  52 CALM      30.12F
GRANBURY       FAIR      57  46  65 CALM      30.12F
$$

TXZ083>090-098>101-113>116-127>130-139>142-154-155-040800-
WESTERN NORTH TEXAS

CITY           SKY/WX    TMP DP  RH WIND       PRES   REMARKS
WICHITA FALLS  FAIR      62  43  49 S3        30.11F
WF-KICKAPOO    FAIR      60  44  55 SE5       30.12F
VERNON         FAIR      61  40  46 CALM      30.12F
ABILENE        FAIR      61  36  39 MISG      30.13F
ABILENE-DYESS  FAIR      58  31  36 SE3       30.10F
GRAHAM         FAIR      59  43  55 E3        30.10F
BRECKENRIDGE   FAIR      65  42  43 SE7       30.11F
CISCO            N/A     61  41  48 SE6       30.11F
EASTLAND       FAIR      48  39  69 CALM      30.13F
RANGER         FAIR      65  43  45 SE6       30.13F
MINERAL WELLS  FAIR      60  44  55 CALM      30.10F
STEPHENVILLE   FAIR      64  44  48 CALM      30.15F
COMANCHE       FAIR      61  38  43 S3        30.14S
COLEMAN        FAIR      58  37  45 CALM      30.13S
BRADY          FAIR      63  37  39 SE5       30.12S
SAN SABA       FAIR      56  40  55 NE5       30.13S
$$

TXZ143>147-156>162-174-175-040800-
CENTRAL TEXAS

CITY           SKY/WX    TMP DP  RH WIND       PRES   REMARKS
WACO           FAIR      58  46  64 CALM      30.10F
HILLSBORO      FAIR      68  48  47 E9        30.10F
CORSICANA      FAIR      67  50  54 E7        30.11F
MEXIA          FAIR      67  47  49 CALM      30.10S
HEARNE         FAIR      63  48  57 CALM      30.09S
CAMERON        FAIR      65  45  46 CALM      30.09S
TEMPLE         FAIR      65  42  43 N5        30.10F
KILLEEN        FAIR      65  41  41 CALM      30.07S
KILLEEN-SKYLRK FAIR      63  44  50 NE3       30.10F
FORT HOOD      FAIR      69  42  37 NE7       30.10F
GATESVILLE     FAIR      59  39  47 MISG      30.12F
LAMPASAS       FAIR      57  39  50 CALM      30.08F
$$

TXZ095>097-106>112-122>126-135>138-148>153-164>167-040800-
EAST TEXAS

CITY           SKY/WX    TMP DP  RH WIND       PRES   REMARKS
PARIS          LGT RAIN  60  48  64 NE5       30.13F
SULPHUR SPRNGS FAIR      59  52  77 CALM      30.14S
MOUNT PLEASANT FAIR      55  53  93 N3        30.12F
GILMER         FAIR      56  50  80 CALM      30.12R
MINEOLA        FAIR      55  50  82 CALM      30.11F
TYLER          FAIR      61  50  67 CALM      30.10F
LONGVIEW       FAIR      56  51  84 CALM      30.11S
MARSHALL       FAIR      53  50  90 CALM      30.13S
ATHENS         FAIR      55  50  82 CALM      30.09F
PALESTINE      FAIR      68  48  49 E6        30.09S
JACKSONVILLE   FAIR      64  50  59 CALM      30.12F
HENDERSON      FAIR      57  49  73 CALM      30.12S
CENTER         FAIR      55  52  88 CALM      30.11F
NACOGDOCHES    FAIR      57  51  80 CALM      30.11S
LUFKIN         FAIR      60  52  74 CALM      30.09F
$$

SUPPLEMENTAL OBSERVATIONS (NWS FORT WORTH AREA)

CITY           SKY/WX    TMP DP  RH WIND       PRES   REMARKS
CADDO GRASSLND   N/A     54  43  66 CALM        N/A
LBJ GRASSLAND    N/A     66  43  42 SE5         N/A
POSSUM KINGDOM   N/A     66  45  45 SE6         N/A
GRANBURY         N/A     57  45  62 CALM        N/A
COMANCHE         N/A     63  37  39 S5          N/A
MCGREGOR         N/A     64  43  45 N3          N/A
TEMPLE           N/A     70  41  35 NE7         N/A
LAKE LIMESTONE   N/A     66  43  42 NE2         N/A
PALESTINE        N/A     57  48  72 CALM        N/A
$$

SUPPLEMENTAL OBSERVATIONS (NWS NORMAN AREA)

CITY           SKY/WX    TMP DP  RH WIND       PRES   REMARKS
GOODLETT         N/A     60  38  43 SE7       30.11
ODELL            N/A     62  42  47 SE12      30.13S
CROWELL          N/A     60  38  45 S5        30.13S
KNOX CITY        N/A     61  39  44 SE9       30.12
SEYMOUR          N/A     60  41  49 SE5       30.12S
MILLERS CREEK    N/A     64  41  42 SE7         N/A
$$

SUPPLEMENTAL OBSERVATIONS (NWS SAN ANGELO AREA)

CITY           SKY/WX    TMP DP  RH WIND       PRES   REMARKS
WEINERT          N/A     62  39  41 SE9       30.13S
HASKELL          N/A     65  42  42 SE7       30.12
THROCKMORTON     N/A     59  41  51 CALM      30.13
STAMFORD         N/A     62  39  43 S6        30.13
CLYDE            N/A     63  39  41 SE7       30.16S
IVIE RESERVOIR   N/A     63  36  36 E8          N/A
COLORADO BEND    N/A     57  39  51 CALM        N/A
$$

SUPPLEMENTAL OBSERVATIONS (NWS SHREVEPORT AREA)

CITY           SKY/WX    TMP DP  RH WIND       PRES   REMARKS
TEXARKANA        N/A     54  52  94 CALM        N/A
CADDO LAKE       N/A     50  48  93 CALM        N/A
LUFKIN           N/A     57  52  82 MISG        N/A
N SABINE NF      N/A     54  50  87 MISG        N/A
$$

SUPPLEMENTAL OBSERVATIONS ARE A COLLECTION OF AUTOMATED INSTRUMENTS
THAT ARE MAINTAINED BY A VARIETY OF FEDERAL AND STATE AGENCIES.
CERTAIN ELEMENTS...SUCH AS HUMIDITY VALUES AND SUSTAINED WIND
SPEEDS...MAY BE APPROXIMATED.




USA.gov is the U.S. government's official web portal to all federal, state and local government web resources and services.